Flag for United Kingdom Weather past 2 weeks in Milton Keynes, England, United Kingdom

Now
54 °F

Clear.


Feels Like: 52 °F
Forecast: 49 / 67 °F
Wind: 7 mph from Southwest

Location: Luton Airport

Current Time: Aug 27, 2015 at 10:47:00 PM

Latest Report: Aug 27, 2015 at 9:50 PM


Visibility: 10 mi

Pressure: 29.83 "Hg

Humidity: 94%

Dew point: 52 °F

Location of Milton KeynesLocation

Historic Weather in Milton Keynes — Graph

°F

Milton Keynes temperature yesterday

Maximum temperature yesterday: 66 °F (at 3:50 PM)
Minimum temperature yesterday: 55 °F (at 11:50 PM)
Average temperature yesterday: 61 °F

Past Weeks' High & Low Weather Summary

 TemperatureHumidityPressure
High84 °F (Aug 22, 2:20 PM)100% (Aug 13, 3:20 AM)30.21 "Hg (Aug 13, 3:20 AM)
Low50 °F (Aug 16, 4:50 AM)37% (Aug 22, 4:50 PM)29.45 "Hg (Aug 24, 12:50 PM)
Average62 °F82%29.87 "Hg
* Reported Aug 12 9:20 PM — Aug 27 9:20 PM, Milton Keynes, Weather by CustomWeather, © 2015

Note: Actual official high and low records may vary slightly from our data, if they occured in-between our weather recording intervals... More about our weather records

Advertising

Milton Keynes weather history for previous 24 hours

 ConditionsComfort  
Time TempWeatherWind HumidityBarometerVisibility
9:20 PM
Thu, Aug 27
55 °FClear.8 mph88%29.80 "Hg10 mi
8:50 PM55 °FSunny.7 mph88%29.80 "Hg10 mi
8:20 PM57 °FSunny.8 mph82%29.77 "Hg10 mi
7:50 PM59 °FSunny.9 mph82%29.77 "Hg10 mi
7:20 PM59 °FPassing clouds.8 mph77%29.77 "HgN/A
6:50 PM61 °FPassing clouds.7 mph77%29.77 "HgN/A
6:20 PM61 °FSunny.10 mph72%29.74 "Hg10 mi
5:50 PM59 °FPassing clouds.9 mph77%29.74 "HgN/A
5:20 PM61 °FScattered clouds.12 mph77%29.74 "HgN/A
4:50 PM63 °FScattered clouds.14 mph68%29.74 "HgN/A
4:20 PM63 °FSprinkles. Partly sunny.9 mph68%29.71 "HgN/A
3:50 PM64 °FScattered clouds.13 mph68%29.71 "HgN/A
3:20 PM63 °FBroken clouds.13 mph77%29.71 "HgN/A
2:50 PM61 °FPartly sunny.6 mph83%29.71 "HgN/A
2:20 PM59 °FSprinkles. Scattered clouds.7 mph88%29.71 "HgN/A
1:50 PM63 °FSprinkles. Scattered clouds.13 mph64%29.71 "HgN/A
1:20 PM64 °FPartly sunny.10 mph64%29.71 "HgN/A
12:50 PM63 °FPassing clouds.15 mph68%29.71 "HgN/A
12:20 PM63 °FPassing clouds.16 mph68%29.71 "HgN/A
11:50 AM64 °FScattered clouds.10 mph68%29.71 "HgN/A
11:20 AM64 °FOvercast.13 mph68%29.68 "HgN/A
10:50 AM61 °FPassing clouds.13 mph83%29.68 "HgN/A
10:20 AM61 °FScattered clouds.13 mph83%29.68 "HgN/A
9:50 AM61 °FPartly sunny.9 mph94%29.68 "HgN/A
9:20 AM57 °FPartly sunny.8 mph100%29.68 "HgN/A
8:50 AM57 °FDrizzle. Partly sunny.7 mph94%29.68 "HgN/A
8:20 AM57 °FPassing clouds.7 mph94%29.68 "HgN/A
7:50 AM55 °FSprinkles. Broken clouds.7 mph100%29.68 "Hg4 mi
7:20 AM55 °FPassing clouds.6 mph100%29.68 "HgN/A
6:50 AM54 °FPassing clouds.7 mph100%29.65 "HgN/A
6:20 AM54 °FPassing clouds.7 mph100%29.65 "HgN/A
5:50 AM55 °FPassing clouds.6 mph94%29.65 "HgN/A
5:20 AM55 °FPassing clouds.7 mph94%29.65 "HgN/A
4:50 AM55 °FPassing clouds.7 mph94%29.65 "HgN/A
4:20 AM55 °FPassing clouds.10 mph100%29.65 "HgN/A
3:50 AM55 °FPartly cloudy.9 mph100%29.68 "HgN/A
3:20 AM55 °FPassing clouds.9 mph100%29.65 "HgN/A
2:50 AM57 °FPassing clouds.6 mph94%29.65 "HgN/A
2:20 AM55 °FPassing clouds.7 mph100%29.65 "HgN/A
1:50 AM55 °FPassing clouds.7 mph100%29.65 "HgN/A
1:20 AM55 °FPassing clouds.8 mph100%29.65 "HgN/A
12:50 AM55 °FPassing clouds.8 mph94%29.65 "HgN/A
12:20 AM55 °FPassing clouds.9 mph94%29.65 "HgN/A
11:50 PM
Wed, Aug 26
55 °FPassing clouds.9 mph100%29.65 "HgN/A
10:50 PM57 °FClear.8 mph88%29.65 "Hg10 mi
10:20 PM57 °FPassing clouds.9 mph94%29.65 "HgN/A
Weather by CustomWeather, © 2015

See weather overviewHow to use our weather pages